Latest Weather Observations for Griffith

IDN60801

Issued at 6:05 pm EST Wednesday 23 April 2014 (issued every 30 minutes, with the page automatically refreshed every 10 minutes)

About weather observations | Map of weather stations | Latest weather observations for NSW | Other Formats
Station Details ID: 075041 Name: GRIFFITH AIRPORT AWS Lat: -34.25 Lon: 146.07 Height: 134.0 m
Data from the previous 72 hours. | See also: Recent months at Griffith
Date/Time
EST
Temp
°C
App
Temp
°C
Dew
Point
Rel
Hum
%
Delta-T
°C
Wind Press
QNH
hPa
Press
MSL
hPa
Rain
since 9 am
mm
Dir
 
Spd
km/h
Gust
km/h
Spd
kts
Gust
kts
23/06:00pm 19.6 18.3 9.8 53 5.3 W 7 9 4 5 1013.9 1013.8 0.0
23/05:30pm 20.7 18.6 9.9 50 5.8 W 11 13 6 7 1013.9 - 0.0
23/05:00pm 22.2 19.6 9.4 44 6.9 W 13 15 7 8 1013.6 - 0.0
23/04:30pm 23.0 19.6 9.0 41 7.5 WNW 17 22 9 12 1013.6 - 0.0
23/04:00pm 23.7 19.8 8.5 38 8.2 W 19 26 10 14 1013.8 - 0.0
23/03:30pm 24.1 21.0 8.9 38 8.2 WNW 15 22 8 12 1013.7 - 0.0
23/03:00pm 23.8 19.5 7.8 36 8.5 WNW 20 28 11 15 1013.9 1013.8 0.0
23/02:30pm 24.3 20.4 8.7 37 8.4 W 19 26 10 14 1013.8 - 0.0
23/02:00pm 24.4 20.0 7.5 34 8.9 NW 20 28 11 15 1014.0 - 0.0
23/01:30pm 23.8 19.0 7.4 35 8.6 WNW 22 28 12 15 1014.3 - 0.0
23/01:00pm 24.1 19.9 7.3 34 8.8 WNW 19 30 10 16 1014.6 - 0.0
23/12:30pm 23.9 19.5 6.7 33 8.9 WNW 19 32 10 17 1015.0 - 0.0
23/12:00pm 23.6 18.6 6.4 33 8.9 WNW 22 30 12 16 1015.4 1015.3 0.0
23/11:30am 22.9 18.6 7.0 36 8.3 NNW 19 26 10 14 1015.9 - 0.0
23/11:00am 21.1 16.7 6.6 39 7.4 NNW 19 22 10 12 1016.4 - 0.0
23/10:30am 20.2 16.3 7.2 43 6.7 NNW 17 22 9 12 1016.6 - 0.0
23/10:00am 18.2 14.5 6.1 45 6.0 NNW 15 19 8 10 1016.7 - 0.0
23/09:30am 17.2 13.8 5.8 47 5.6 NNW 13 17 7 9 1016.9 - 0.0
23/09:00am 16.1 14.0 6.5 53 4.7 WNW 7 13 4 7 1017.0 1016.8 0.0
23/08:30am 14.2 10.7 7.3 63 3.4 SW 15 19 8 10 1017.1 - 0.0
23/08:00am 11.7 11.6 9.3 85 1.2 CALM 0 0 0 0 1016.6 - 0.0
23/07:30am 9.7 9.1 7.3 85 1.1 CALM 0 0 0 0 1016.4 - 0.0
23/07:00am 10.1 9.1 5.5 73 2.1 CALM 0 0 0 0 1016.2 - 0.0
23/06:30am 10.9 9.9 5.7 70 2.4 CALM 0 0 0 0 1015.9 - 0.0
23/06:00am 11.0 10.1 6.0 71 2.3 CALM 0 0 0 0 1015.7 1015.6 0.0
23/05:30am 11.8 9.7 6.5 70 2.5 WSW 7 9 4 5 1015.7 - 0.0
23/05:00am 11.6 8.3 6.5 71 2.4 SW 13 19 7 10 1015.6 - 0.0
23/04:30am 11.3 10.4 6.2 71 2.4 CALM 0 0 0 0 1015.4 - 0.0
23/04:00am 10.0 9.1 6.2 77 1.8 CALM 0 0 0 0 1015.2 - 0.0
23/03:30am 11.1 10.1 5.6 69 2.6 CALM 0 0 0 0 1015.3 - 0.0
23/03:00am 11.0 10.0 5.7 70 2.5 CALM 0 0 0 0 1015.2 1015.1 0.0
23/02:30am 10.7 9.7 5.5 70 2.4 CALM 0 0 0 0 1015.4 - 0.0
23/02:00am 11.3 10.3 5.8 69 2.6 CALM 0 4 0 2 1015.4 - 0.0
23/01:30am 11.4 9.1 5.9 69 2.6 N 7 9 4 5 1015.7 - 0.0
23/01:00am 12.3 11.4 6.1 66 2.9 CALM 0 0 0 0 1015.9 - 0.0
23/12:30am 12.6 10.6 6.4 66 3.0 N 6 7 3 4 1015.8 - 0.0
23/12:00am 12.5 10.5 6.1 65 3.0 NNW 6 7 3 4 1016.0 1015.9 0.0
 
Date/Time
EST
Temp
°C
App
Temp
°C
Dew
Point
Rel
Hum
%
Delta-T
°C
Wind Press
QNH
hPa
Press
MSL
hPa
Rain
since 9 am
mm
Dir
 
Spd
km/h
Gust
km/h
Spd
kts
Gust
kts
22/11:30pm 12.6 11.3 5.8 63 3.2 WNW 2 7 1 4 1016.4 - 0.0
22/11:00pm 13.0 9.6 5.7 61 3.5 W 13 17 7 9 1016.7 - 0.0
22/10:30pm 15.2 12.4 5.1 51 4.8 N 9 11 5 6 1016.5 - 0.0
22/10:00pm 14.7 13.6 5.0 52 4.6 CALM 0 0 0 0 1016.5 - 0.0
22/09:30pm 15.8 13.4 5.1 49 5.1 NNW 7 11 4 6 1016.5 - 0.0
22/09:00pm 16.4 13.2 5.1 47 5.4 N 11 15 6 8 1016.3 1016.1 0.0
22/08:30pm 17.8 13.4 4.7 42 6.3 N 17 22 9 12 1015.8 - 0.0
22/08:00pm 18.7 13.7 4.8 40 6.7 N 20 26 11 14 1015.5 - 0.0
22/07:30pm 18.4 13.7 5.3 42 6.4 NNE 19 24 10 13 1015.5 - 0.0
22/07:00pm 17.8 13.9 5.4 44 6.0 N 15 19 8 10 1015.5 - 0.0
22/06:30pm 18.0 14.6 5.9 45 6.0 N 13 17 7 9 1015.3 - 0.0
22/06:00pm 17.6 14.2 5.9 46 5.7 NNE 13 17 7 9 1014.9 1014.8 0.0
22/05:30pm 19.7 16.7 6.1 41 6.8 N 11 17 6 9 1015.0 - 0.0
22/05:00pm 22.5 18.9 5.0 32 8.7 NNW 13 19 7 10 1015.0 - 0.0
22/04:30pm 23.3 19.9 5.7 32 9.0 NNW 13 15 7 8 1015.0 - 0.0
22/04:00pm 23.7 19.4 5.1 30 9.4 NNW 17 24 9 13 1014.9 - 0.0
22/03:30pm 23.6 18.9 5.0 30 9.4 NNW 19 28 10 15 1014.8 - 0.0
22/03:00pm 23.6 18.7 5.0 30 9.4 NNW 20 28 11 15 1014.9 1014.8 0.0
22/02:30pm 23.6 18.7 5.0 30 9.4 NNW 20 30 11 16 1015.0 - 0.0
22/02:00pm 22.8 18.0 4.8 31 9.0 NNW 19 28 10 15 1015.2 - 0.0
22/01:30pm 22.5 17.7 4.5 31 8.9 NNW 19 26 10 14 1015.6 - 0.0
22/01:00pm 22.8 17.9 5.3 32 8.8 NW 20 32 11 17 1016.2 - 0.0
22/12:30pm 22.8 17.6 5.3 32 8.8 WNW 22 30 12 16 1016.7 - 0.0
22/12:00pm 22.2 17.7 6.0 35 8.2 NNW 19 26 10 14 1017.2 1017.0 0.0
22/11:30am 20.7 15.7 4.7 35 7.8 NW 20 24 11 13 1017.6 - 0.0
22/11:00am 21.2 15.8 4.7 34 8.1 NW 22 28 12 15 1017.8 - 0.0
22/10:30am 20.6 15.7 5.0 36 7.7 NNW 20 26 11 14 1018.1 - 0.0
22/10:00am 19.7 15.3 5.0 38 7.2 NNW 17 26 9 14 1018.2 - 0.0
22/09:30am 18.5 13.8 5.0 41 6.6 N 19 26 10 14 1018.3 - 0.0
22/09:00am 18.6 14.7 7.1 47 5.8 N 17 24 9 13 1018.4 1018.2 0.0
22/08:30am 17.6 16.0 8.7 56 4.6 NE 7 15 4 8 1018.3 - 0.0
22/08:00am 13.9 11.7 7.9 67 3.0 E 9 11 5 6 1018.2 - 0.0
22/07:30am 10.1 8.9 8.0 87 1.0 ENE 4 7 2 4 1018.2 - 0.0
22/07:00am 8.0 6.9 5.3 83 1.2 CALM 0 0 0 0 1018.1 - 0.0
22/06:30am 8.7 7.6 5.1 78 1.6 CALM 0 0 0 0 1017.9 - 0.0
22/06:00am 9.4 8.4 5.4 76 1.8 CALM 0 0 0 0 1017.7 1017.5 0.0
22/05:30am 8.8 7.7 5.2 78 1.6 CALM 0 0 0 0 1017.6 - 0.0
22/05:00am 9.9 8.8 5.3 73 2.1 CALM 0 0 0 0 1017.4 - 0.0
22/04:30am 8.6 7.4 4.6 76 1.8 CALM 0 0 0 0 1017.5 - 0.0
22/04:00am 9.2 8.0 4.8 74 2.0 CALM 0 0 0 0 1017.4 - 0.0
22/03:30am 9.9 8.8 4.9 71 2.3 CALM 0 0 0 0 1017.5 - 0.0
22/03:00am 10.5 9.3 4.6 67 2.7 CALM 0 0 0 0 1017.6 1017.4 0.0
22/02:30am 12.0 9.7 4.7 61 3.4 NNW 6 7 3 4 1017.8 - 0.0
22/02:00am 12.9 10.4 4.8 58 3.8 N 7 9 4 5 1017.9 - 0.0
22/01:30am 12.9 10.1 5.3 60 3.6 N 9 13 5 7 1018.1 - 0.0
22/01:00am 11.8 9.6 5.4 65 3.0 NW 6 7 3 4 1018.4 - 0.0
22/12:30am 11.3 10.3 5.6 68 2.7 CALM 0 0 0 0 1018.3 - 0.0
22/12:00am 11.3 8.9 4.5 63 3.1 N 6 9 3 5 1018.4 1018.2 0.0
 
Date/Time
EST
Temp
°C
App
Temp
°C
Dew
Point
Rel
Hum
%
Delta-T
°C
Wind Press
QNH
hPa
Press
MSL
hPa
Rain
since 9 am
mm
Dir
 
Spd
km/h
Gust
km/h
Spd
kts
Gust
kts
21/11:30pm 11.1 8.6 4.6 64 3.0 NNE 7 13 4 7 1018.8 - 0.0
21/11:00pm 10.3 6.9 4.0 65 2.8 ENE 11 13 6 7 1018.9 - 0.0
21/10:30pm 10.7 7.0 4.2 64 2.9 E 13 15 7 8 1019.2 - 0.0
21/10:00pm 11.2 7.5 4.2 62 3.2 E 13 15 7 8 1019.2 - 0.0
21/09:30pm 11.5 7.1 4.5 62 3.2 E 17 19 9 10 1019.3 - 0.0
21/09:00pm 11.0 7.0 4.9 66 2.8 E 15 17 8 9 1019.4 1019.3 0.0
21/08:30pm 10.6 6.6 4.7 67 2.7 E 15 17 8 9 1019.4 - 0.0
21/08:00pm 11.5 7.5 4.9 64 3.0 E 15 17 8 9 1019.3 - 0.0
21/07:30pm 10.7 7.4 4.8 67 2.7 E 11 13 6 7 1019.3 - 0.0
21/07:00pm 11.8 8.7 5.7 66 2.9 E 11 13 6 7 1019.2 - 0.0
21/06:30pm 12.3 11.0 4.3 58 3.6 CALM 0 0 0 0 1019.2 - 0.0
21/06:00pm 15.0 13.7 4.1 48 5.0 CALM 0 0 0 0 1018.9 1018.7 0.0
21/05:30pm 18.7 17.5 4.8 40 6.7 CALM 0 0 0 0 1018.7 - 0.0
21/05:00pm 19.7 18.3 3.8 35 7.6 CALM 0 0 0 0 1018.7 - 0.0
21/04:30pm 18.7 15.7 4.1 38 7.0 W 9 11 5 6 1018.7 - 0.0
21/04:00pm 20.0 16.8 3.3 33 7.9 W 9 15 5 8 1018.8 - 0.0
21/03:30pm 19.7 16.9 3.0 33 7.9 N 7 11 4 6 1018.7 - 0.0
21/03:00pm 19.3 16.3 2.2 32 7.9 N 7 15 4 8 1019.0 1018.8 0.0
21/02:30pm 19.6 17.3 2.9 33 7.8 NE 4 9 2 5 1019.0 - 0.0
21/02:00pm 19.1 16.5 3.3 35 7.5 ENE 6 13 3 7 1019.2 - 0.0
21/01:30pm 18.5 15.8 2.4 34 7.4 N 6 11 3 6 1019.6 - 0.0
21/01:00pm 19.5 17.1 4.4 37 7.3 N 6 17 3 9 1019.7 - 0.0
21/12:30pm 18.8 16.4 4.2 38 7.0 ENE 6 11 3 6 1020.0 - 0.0
21/12:00pm 17.9 14.3 3.0 37 6.9 N 11 19 6 10 1020.6 1020.5 0.0
21/11:30am 18.3 16.3 4.5 40 6.6 NNW 4 9 2 5 1020.9 - 0.0
21/11:00am 17.4 14.4 4.0 41 6.3 NNE 9 15 5 8 1021.6 - 0.0
21/10:30am 16.5 12.3 3.9 43 5.9 NE 15 20 8 11 1021.5 - 0.0
21/10:00am 16.0 12.0 2.8 41 6.0 NE 13 19 7 10 1021.7 - 0.0
21/09:30am 15.1 12.2 4.5 49 5.0 ENE 9 13 5 7 1022.0 - 0.0
21/09:00am 14.1 12.2 6.5 60 3.7 NE 6 9 3 5 1022.2 1022.1 0.0
21/08:30am 10.9 9.8 5.0 67 2.7 CALM 0 0 0 0 1022.5 - 0.0
21/08:00am 8.7 7.6 4.9 77 1.7 CALM 0 0 0 0 1022.2 - 0.0
21/07:30am 6.7 5.9 6.3 97 0.2 CALM 0 0 0 0 1021.8 - 0.0
21/07:00am 4.4 3.1 4.3 99 0.0 CALM 0 2 0 1 1021.4 - 0.0
21/06:30am 4.6 3.4 4.5 99 0.0 CALM 0 0 0 0 1021.3 - 0.0
21/06:00am 4.4 3.0 3.8 96 0.3 CALM 0 0 0 0 1020.9 1020.8 0.0
21/05:30am 4.6 3.2 3.7 94 0.4 CALM 0 0 0 0 1020.8 - 0.0
21/05:00am 4.6 3.2 3.4 92 0.5 CALM 0 0 0 0 1020.5 - 0.0
21/04:30am 4.3 2.8 2.8 90 0.6 CALM 0 0 0 0 1020.4 - 0.0
21/04:00am 4.9 3.4 3.1 88 0.7 CALM 0 0 0 0 1020.1 - 0.0
21/03:30am 5.5 4.0 3.0 84 1.0 CALM 0 0 0 0 1020.0 - 0.0
21/03:00am 5.9 4.4 3.1 82 1.2 CALM 0 0 0 0 1020.1 1020.0 0.0
21/02:30am 6.0 4.3 2.1 76 1.6 CALM 0 0 0 0 1020.3 - 0.0
21/02:00am 8.4 6.7 3.8 73 2.0 NE 2 7 1 4 1020.4 - 0.0
21/01:30am 6.2 2.7 3.4 82 1.2 E 11 13 6 7 1020.4 - 0.0
21/01:00am 7.1 3.3 4.1 81 1.3 E 13 13 7 7 1020.3 - 0.0
21/12:30am 7.3 3.5 4.1 80 1.4 E 13 13 7 7 1020.3 - 0.0
21/12:00am 7.5 3.8 4.5 81 1.3 E 13 15 7 8 1020.4 1020.3 0.0
 
Date/Time
EST
Temp
°C
App
Temp
°C
Dew
Point
Rel
Hum
%
Delta-T
°C
Wind Press
QNH
hPa
Press
MSL
hPa
Rain
since 9 am
mm
Dir
 
Spd
km/h
Gust
km/h
Spd
kts
Gust
kts
20/11:30pm 7.2 3.5 4.2 81 1.3 E 13 15 7 8 1020.4 - 0.0
20/11:00pm 7.9 4.2 4.3 78 1.6 E 13 15 7 8 1020.4 - 0.0
20/10:30pm 8.0 4.3 4.6 79 1.5 E 13 13 7 7 1020.7 - 0.0
20/10:00pm 8.0 4.3 4.4 78 1.6 ESE 13 13 7 7 1020.8 - 0.0
20/09:30pm 8.4 4.7 4.2 75 1.8 ESE 13 15 7 8 1020.6 - 0.0
20/09:00pm 8.6 4.8 4.0 73 2.0 ESE 13 15 7 8 1020.4 1020.3 0.0
20/08:30pm 9.1 5.4 4.3 72 2.1 ESE 13 15 7 8 1020.3 - 0.0
20/08:00pm 9.2 5.5 4.2 71 2.2 ESE 13 13 7 7 1020.0 - 0.0
20/07:30pm 9.5 6.1 3.9 68 2.5 ESE 11 15 6 8 1019.8 - 0.0
20/07:00pm 10.6 6.7 3.4 61 3.2 ESE 13 15 7 8 1019.5 - 0.0
20/06:30pm 13.5 9.7 3.8 52 4.4 SE 13 17 7 9 1019.3 - 0.0

Other Formats:

Comma delimited format used in spreadsheet applications
http://www.bom.gov.au/fwo/IDN60801/IDN60801.95704.axf

JavaScript Object Notation format (JSON) in row-major order
http://www.bom.gov.au/fwo/IDN60801/IDN60801.95704.json